Location: Glencliff
(36.1226°N, 86.7183°W)
Time: 04:26:50
(UTC+00:00)

Lacrosse 5 rocket - Pass Details

Date: 25 August 2019
Orbit: 459 x 639 km, 57.0° (Epoch: 21 October)

Event Time Altitude Azimuth Distance (km) Brightness Sun altitude
Exits shadow 10:07:25 21° 232° (SW) 1,173 2.4 -13.3°
Maximum altitude 10:09:52 69° 312° (NW) 566 1.2 -12.9°
Drops below altitude 10° 10:13:59 10° 36° (NE) 1,832 5.0 -12.1°
Sets 10:16:19 0° 39° (NE) 2,764 6.1 -11.7°
